sat.trackr.live / text

‹ back to catalog

STARLINK-31635

NORAD 59511 · 2024-073A

PAYLOAD ACTIVE UNKNOWN

§ Identity

Operator
Country
US
Launch date
2024-04-17
Launch site
AFETR
Launch vehicle
Mass (kg)
RCS (m²)

Purposes: comms

External: N2YO · Heavens-Above · Gunter

§ Orbital elements

Epoch: 2026-05-24T18:11:23.989920Z

Period
94.27 min
Inclination
43.0001°
Eccentricity
0.0000691
Mean motion
15.27590634 rev/d
Perigee alt
482.5 km
Apogee alt
483.5 km
Semi-major
6,861.2 km
B*
-5.8306e-5
RAAN
248.0577°
Arg perigee
219.3211°
Mean anomaly
140.7590°
Rev number
11,781

§ Raw data

STARLINK-316351 59511U 24073A   26144.75791655 -.00001866  00000+0 -58306-4 0  99972 59511  43.0001 248.0577 0000691 219.3211 140.7590 15.27590634117815

JSON: /api/v1/satellites/59511 · /tle

For live sub-satellite position, see the globe view (requires WebGL).

§ Visibility from observer

Set your observer location to see the next 7 days of passes ≥ 10°. The values pass through the URL so the page stays shareable.

No JS? Fill the form by hand. The geolocation button needs JavaScript.